Simultaneous Nadir Overpasses (SNOs) Predictions

Prediction of SNOs between LANDSAT-8 and NOAA-19 Satellite Orbit:

Table of predicted SNOs for the next 14.0 days since TLE Epoch: 5/9/2020
Index Date (LANDSAT-8) Time (LANDSAT-8) Lat,Lon (LANDSAT-8) SZA (LANDSAT-8 ) Date (NOAA-19) Time (NOAA-19) Lat,Lon (NOAA-19) SZA (NOAA-19 ) Distance(km) Time Diff (sec)
1 05/10/2020 22:58:37 -79.69, 40.11 117.21 05/10/2020 22:58:21 -79.71, 40.08 117.21 1.53 16
2 05/13/2020 04:32:18 79.73, 136.93 62.29 05/13/2020 04:31:45 79.70, 136.93 62.25 3.43 33
3 05/13/2020 05:21:46 -79.70, -55.65 117.77 05/13/2020 05:22:39 -79.68, -55.63 117.76 1.97 53
4 05/15/2020 10:06:02 -79.70,-126.70 118.29 05/15/2020 10:04:59 -79.73,-126.62 118.28 3.14 63
5 05/15/2020 10:55:28 79.69, 40.88 61.70 05/15/2020 10:56:04 79.70, 40.89 61.72 0.94 36
6 05/17/2020 16:29:11 -79.70, 137.53 118.79 05/17/2020 16:29:17 -79.70, 137.65 118.78 2.44 6
7 05/19/2020 22:02:52 79.73,-125.72 60.77 05/19/2020 22:02:41 79.71,-125.65 60.75 2.91 11
8 05/19/2020 22:52:20 -79.71, 41.75 119.28 05/19/2020 22:53:32 -79.60, 42.79 119.26 24.13 72
9 05/22/2020 03:36:34 -79.74, -29.06 119.67 05/22/2020 03:35:54 -79.73, -29.09 119.70 1.71 40




NCC Satellite Simultaneous Nadir Overpasses (SNOs) Prediction Service
